COSMOS 2251 DEB, 35587

Orbit data source: Space-Track

COSMOS 2251 DEB, 35587 is space debris in LEO originally from a launch on Wed, 16 Jun 1993 UTC launched from the Plesetsk Missile And Space Complex (PKMTR). The debris from Iridium 33, an American commercial communications satellite, has been tracked extensively since its accidental collision with the defunct Russian satellite Cosmos 2251 in 2009. This event, occurring at high speed in low Earth orbit (LEO), generated thousands of pieces of space debris, significantly increasing the risk of further collisions. The Iridium 33 debris cloud has impacted space traffic management and orbital debris mitigation strategies, making it a subject of ongoing study in space situational awareness.

Loading next visibility...
Identifier
35587, 1993-036AME
Orbit
LEO
Country
Flag of CISCIS
Related business
Manufacturer
Unknown
Mission
Spacecraft
Bus & Motor
Unknown
Mass
Unknown
Launch date (UTC)
1993-06-16 (33 years ago)
Launch vehicle
Unknown
Launch site
Plesetsk Missile And Space Complex (PKMTR)
Object type
Payload
Rocket body
Debris
Shape & HBR
Unknown shape, 0.1 m
Radar Cross Section
Small (<0.1 m²)

Expand to show TLE details & history
Last TLE update: 1 day ago

TLE from 1 day ago
0 COSMOS 2251 DEB
1 35587U 93036AME 26123.40979804  .00001121  00000-0  17032-3 0  9995
2 35587  74.0014 142.3970 0102104 293.9160  65.1342 14.71952413684309
Epoch: 2026-05-03T09:50Z
TLE epoch observation values (Epoch: 2026-05-03T09:50:06.550Z)
Latitude
Longitude
133.55595°
Altitude
627.902 km
Speed
7.561 km/s
True Right ascension
09h 29m 35s
True Declination
0° 00' 00"
Sunlit
Object was in daylight at epoch
Visualization orbit readout
Latitude
Unknown
Longitude
Unknown
Altitude
Unknown
Speed
Unknown
Apparent Right ascension
Unknown
Apparent Declination
Unknown
Sunlit
N/A
Visualization observer readout
Local Sidereal Time
22:39:34
Azimuth
Unknown
Elevation
Unknown
Doppler factor
Unknown
Orbital elements
Apogee altitude
724.214 km
Perigee altitude
580.644 km
Semi-major axis
7,030.566 km
Eccentricity
0.01021
Inclination
74.0014°
RAAN
142.397°
Arg. of periapsis
293.916°
True anomaly
66.20142°
Mean anomaly
65.1342°
Eccentric anomaly
65.66724°
Mean motion
3.68178 °/min
Orbital period
97.78 mins
BSTAR
0.00017032
Loading maneuver chart data...
Computing Atmospheric mass density...

Documentation

Showing up to 5 results
|